Torna al catalogo

ATLAS 5 CENTAUR DEB

AttivoHEO
NORAD 44647·DEBRIS·🇺🇸 United States

Lanciato Oct 17, 2018 da Cape Canaveral Space Force Station

Loading…

Prossimi Passaggi (prossime 24 ore)

TLE

AggiornatoSource: Space-Track

Epoca: Sep 5, 2026, 16:45 UTC

1 44647U 18079H   26248.69856183 -.00000163  00000-0  00000-0 0  9999
2 44647  13.5412  13.4955 4632318 359.2077   0.1564  1.88053275 54093

Traccia ATLAS 5 CENTAUR DEB in tempo reale con AllMySat

Download on the App Store